This is the latest recevied weather packets stored in our database for station/object KD8OZS. If no packets are shown the sender has not sent any weather packets the latest 10 day(s).
| Time | Temp. | Humidity | Pressure | Rain* | Wind** | Luminosity | Snow |
|---|---|---|---|---|---|---|---|
| 1777750286 | 5° C | 87% | 1009.7 hPa | 0 mm | - | 163 W/m² | - |
| 1777749981 | 4.44° C | 86% | 1009.9 hPa | 0 mm | - | 157 W/m² | - |
| 1777749680 | 4.44° C | 87% | 1010.1 hPa | 0 mm | - | 144 W/m² | - |
| 1777749376 | 3.89° C | 87% | 1009.8 hPa | 0 mm | - | 138 W/m² | - |
| 1777749074 | 3.89° C | 88% | 1010 hPa | 1.78 mm | - | 133 W/m² | - |
| 1777748771 | 3.89° C | 88% | 1009.8 hPa | 1.78 mm | - | 111 W/m² | - |
| 1777748469 | 3.89° C | 87% | 1010.1 hPa | 0 mm | - | 96 W/m² | - |
| 1777748163 | 5° C | 87% | 1010.1 hPa | 0 mm | - | 98 W/m² | - |
| 1777747860 | 5.56° C | 85% | 1010 hPa | 0 mm | - | 78 W/m² | - |
| 1777747556 | 5° C | 86% | 1010.1 hPa | 0 mm | - | 114 W/m² | - |
| 1777747252 | 5° C | 86% | 1010.1 hPa | 0 mm | - | 144 W/m² | - |
| 1777746948 | 5° C | 86% | 1010 hPa | 0 mm | - | 202 W/m² | - |
| 1777746644 | 4.44° C | 87% | 1010 hPa | 1.27 mm | - | 209 W/m² | - |
| 1777746340 | 5° C | 88% | 1009.9 hPa | 1.27 mm | - | 198 W/m² | - |
| 1777746036 | 5° C | 87% | 1009.9 hPa | 1.27 mm | - | 180 W/m² | - |
| 1777745734 | 5° C | 84% | 1010.2 hPa | 0 mm | - | 104 W/m² | - |
| 1777745432 | 5° C | 80% | 1010.1 hPa | 0 mm | - | 99 W/m² | - |
| 1777745129 | 5.56° C | 80% | 1009.8 hPa | 0 mm | - | 131 W/m² | - |
| 1777744826 | 5.56° C | 78% | 1010.1 hPa | 0 mm | - | 156 W/m² | - |
| 1777744520 | 5.56° C | 78% | 1009.9 hPa | 0 mm | - | 172 W/m² | - |
| 1777744216 | 5.56° C | 77% | 1010 hPa | 0 mm | - | 212 W/m² | - |
| 1777743914 | 5.56° C | 77% | 1010 hPa | 0 mm | - | 177 W/m² | - |
| 1777743610 | 6.11° C | 76% | 1009.7 hPa | 0 mm | - | 145 W/m² | - |
| 1777743307 | 6.11° C | 76% | 1009.9 hPa | 0 mm | - | 157 W/m² | - |
| 1777743005 | 5.56° C | 78% | 1009.7 hPa | 0 mm | - | 195 W/m² | - |
* Rain latest hour (hover to see other rain measurements)
** Current wind speed in m/s (hover to see current wind gust speed)